SWR743 LSZH-LSGG

Flight info

Callsign SWR743
Flight time 0h 27m
Altitude 18000
Route VEBIT T50 ROTOS Z669 ULMES
Aircraft A20N/M-SDE2E3FGHIRWXY/LB1

Departure

Time 2026-05-05 10:29
Airport Zürich Airport (LSZH)

Arrival

Time 2026-05-05 10:56
Airport Geneva International Airport (LSGG)
Time Latitude Longitude Altitude Speed Heading
2026-05-05 10:04 47.46076 8.55339 1398 ft 0 kts
2026-05-05 10:18 47.46067 8.55338 1396 ft 2 kts
2026-05-05 10:19 47.46051 8.55336 1405 ft 2 kts
2026-05-05 10:19 47.46034 8.55334 1405 ft 2 kts
2026-05-05 10:19 47.46018 8.55333 1404 ft 2 kts
2026-05-05 10:19 47.46001 8.55334 1400 ft 2 kts 353°
2026-05-05 10:20 47.45985 8.55339 1402 ft 2 kts 324°
2026-05-05 10:20 47.45977 8.55357 1408 ft 1 kts 276°
2026-05-05 10:20 47.45976 8.55361 1408 ft 0 kts 275°
2026-05-05 10:23 47.45978 8.55342 1403 ft 6 kts 276°
2026-05-05 10:23 47.45985 8.55235 1395 ft 15 kts 274°
2026-05-05 10:23 47.45994 8.55060 1402 ft 19 kts 276°
2026-05-05 10:23 47.46068 8.54904 1385 ft 21 kts 336°
2026-05-05 10:24 47.46206 8.54814 1387 ft 22 kts 335°
2026-05-05 10:24 47.46356 8.54710 1383 ft 25 kts 336°
2026-05-05 10:24 47.46511 8.54605 1388 ft 24 kts 334°
2026-05-05 10:24 47.46664 8.54496 1386 ft 25 kts 332°
2026-05-05 10:25 47.46834 8.54395 1380 ft 27 kts 337°
2026-05-05 10:25 47.47000 8.54282 1383 ft 26 kts 335°
2026-05-05 10:25 47.47167 8.54166 1384 ft 25 kts 336°
2026-05-05 10:25 47.47323 8.54060 1387 ft 24 kts 335°
2026-05-05 10:26 47.47466 8.53960 1398 ft 21 kts 335°
2026-05-05 10:26 47.47588 8.53863 1400 ft 18 kts 313°
2026-05-05 10:26 47.47595 8.53708 1406 ft 14 kts 241°
2026-05-05 10:26 47.47550 8.53616 1403 ft 9 kts 189°
2026-05-05 10:27 47.47508 8.53637 1405 ft 0 kts 155°
2026-05-05 10:27 47.47502 8.53641 1404 ft 8 kts 155°
2026-05-05 10:28 47.47171 8.53869 1382 ft 95 kts 154°
2026-05-05 10:28 47.46351 8.54437 1384 ft 161 kts 155°
2026-05-05 10:28 47.45175 8.55249 1479 ft 207 kts 155°
2026-05-05 10:28 47.43765 8.56201 1783 ft 239 kts 156°
2026-05-05 10:29 47.42211 8.57210 2846 ft 241 kts 157°
2026-05-05 10:29 47.40718 8.58165 4228 ft 225 kts 157°
2026-05-05 10:29 47.39289 8.59083 5279 ft 228 kts 154°
2026-05-05 10:29 47.38034 8.60597 5841 ft 248 kts 126°
2026-05-05 10:30 47.37370 8.63047 6352 ft 272 kts 98°
2026-05-05 10:30 47.37569 8.65904 6982 ft 289 kts 71°
2026-05-05 10:30 47.38664 8.68426 7851 ft 298 kts 45°
2026-05-05 10:30 47.40430 8.70075 8702 ft 307 kts 20°
2026-05-05 10:31 47.42555 8.70511 9568 ft 314 kts 354°
2026-05-05 10:31 47.44649 8.69625 10354 ft 316 kts 329°
2026-05-05 10:31 47.46316 8.67561 11210 ft 313 kts 303°
2026-05-05 10:31 47.47259 8.64710 12038 ft 308 kts 279°
2026-05-05 10:32 47.47328 8.61693 12885 ft 302 kts 256°
2026-05-05 10:32 47.46785 8.58701 13747 ft 302 kts 250°
2026-05-05 10:32 47.46124 8.55739 14492 ft 305 kts 244°
2026-05-05 10:32 47.45212 8.52891 15194 ft 308 kts 240°
2026-05-05 10:33 47.44227 8.50105 15885 ft 312 kts 240°
2026-05-05 10:33 47.43215 8.47239 16609 ft 316 kts 240°
2026-05-05 10:33 47.42205 8.44315 17310 ft 320 kts 240°
2026-05-05 10:33 47.41208 8.41371 17749 ft 325 kts 241°
2026-05-05 10:34 47.40205 8.38381 17880 ft 325 kts 241°
2026-05-05 10:34 47.39202 8.35376 17884 ft 326 kts 241°
2026-05-05 10:34 47.38193 8.32387 17890 ft 324 kts 240°
2026-05-05 10:34 47.37118 8.29356 17887 ft 345 kts 240°
2026-05-05 10:35 47.35950 8.26123 17888 ft 368 kts 240°
2026-05-05 10:35 47.34744 8.22777 17888 ft 376 kts 240°
2026-05-05 10:35 47.33524 8.19362 17893 ft 376 kts 240°
2026-05-05 10:35 47.32308 8.15945 17890 ft 377 kts 240°
2026-05-05 10:36 47.31091 8.12525 17895 ft 377 kts 240°
2026-05-05 10:36 47.29874 8.09097 17894 ft 378 kts 241°
2026-05-05 10:36 47.28651 8.05657 17894 ft 383 kts 241°
2026-05-05 10:36 47.27377 8.02081 17893 ft 404 kts 241°
2026-05-05 10:37 47.26170 7.98235 17892 ft 424 kts 246°
2026-05-05 10:37 47.25041 7.94162 17889 ft 431 kts 246°
2026-05-05 10:37 47.23905 7.90076 17893 ft 432 kts 246°
2026-05-05 10:37 47.23404 7.88282 17889 ft 432 kts 246°
2026-05-05 10:38 47.22268 7.84219 17884 ft 433 kts 246°
2026-05-05 10:38 47.21119 7.80125 17887 ft 433 kts 246°
2026-05-05 10:38 47.19952 7.76049 17883 ft 433 kts 244°
2026-05-05 10:38 47.18539 7.72139 17884 ft 433 kts 238°
2026-05-05 10:39 47.16834 7.68498 17883 ft 432 kts 231°
2026-05-05 10:39 47.14960 7.65051 17881 ft 432 kts 230°
2026-05-05 10:39 47.13087 7.61597 17884 ft 432 kts 231°
2026-05-05 10:39 47.11215 7.58135 17882 ft 432 kts 231°
2026-05-05 10:40 47.09345 7.54675 17886 ft 432 kts 231°
2026-05-05 10:40 47.07476 7.51224 17889 ft 432 kts 231°
2026-05-05 10:40 47.05634 7.47824 17881 ft 432 kts 230°
2026-05-05 10:40 47.04373 7.45502 17888 ft 432 kts 230°
2026-05-05 10:41 47.02499 7.42052 17881 ft 432 kts 230°
2026-05-05 10:41 47.00014 7.37498 17882 ft 432 kts 230°
2026-05-05 10:41 46.98131 7.34063 17882 ft 432 kts 230°
2026-05-05 10:41 46.96252 7.30638 17885 ft 431 kts 230°
2026-05-05 10:42 46.93125 7.24940 17885 ft 431 kts 230°
2026-05-05 10:42 46.91252 7.21523 17886 ft 431 kts 230°
2026-05-05 10:42 46.89381 7.18113 17898 ft 429 kts 230°
2026-05-05 10:43 46.87518 7.14720 17626 ft 425 kts 230°
2026-05-05 10:43 46.85676 7.11373 17043 ft 420 kts 230°
2026-05-05 10:43 46.83858 7.08074 16364 ft 414 kts 230°
2026-05-05 10:43 46.82062 7.04821 15646 ft 408 kts 230°
2026-05-05 10:44 46.80295 7.01623 15130 ft 399 kts 230°
2026-05-05 10:44 46.79142 6.99538 14986 ft 400 kts 230°
2026-05-05 10:44 46.77311 6.96227 14873 ft 400 kts 230°
2026-05-05 10:44 46.75572 6.93085 14657 ft 393 kts 230°
2026-05-05 10:45 46.73884 6.90039 14506 ft 378 kts 230°
2026-05-05 10:45 46.72259 6.87109 14129 ft 367 kts 230°
2026-05-05 10:45 46.70674 6.84256 13412 ft 358 kts 230°
2026-05-05 10:45 46.69118 6.81458 12393 ft 354 kts 230°
2026-05-05 10:46 46.67593 6.78718 11394 ft 352 kts 230°
2026-05-05 10:46 46.66062 6.75971 10479 ft 347 kts 230°
2026-05-05 10:46 46.64535 6.73301 9879 ft 335 kts 228°
2026-05-05 10:46 46.63037 6.70863 9632 ft 312 kts 226°
2026-05-05 10:47 46.61623 6.68605 9420 ft 292 kts 226°
2026-05-05 10:47 46.60302 6.66496 9236 ft 272 kts 226°
2026-05-05 10:47 46.59058 6.64500 8830 ft 263 kts 226°
2026-05-05 10:47 46.57837 6.62536 8382 ft 260 kts 227°
2026-05-05 10:48 46.56636 6.60597 7939 ft 261 kts 227°
2026-05-05 10:48 46.55417 6.58621 7551 ft 262 kts 226°
2026-05-05 10:48 46.54351 6.56896 7237 ft 261 kts 226°
2026-05-05 10:48 46.53157 6.54965 7037 ft 251 kts 227°
2026-05-05 10:49 46.52054 6.53179 6891 ft 236 kts 226°
2026-05-05 10:49 46.50989 6.51452 6707 ft 222 kts 226°
2026-05-05 10:49 46.49977 6.49814 6451 ft 216 kts 226°
2026-05-05 10:49 46.48969 6.48187 6170 ft 217 kts 226°
2026-05-05 10:50 46.47967 6.46574 6015 ft 215 kts 226°
2026-05-05 10:50 46.46946 6.44932 5671 ft 222 kts 226°
2026-05-05 10:50 46.45912 6.43343 5434 ft 217 kts 223°
2026-05-05 10:50 46.44837 6.41824 5150 ft 215 kts 223°
2026-05-05 10:51 46.43765 6.40313 4838 ft 214 kts 223°
2026-05-05 10:51 46.42707 6.38792 4555 ft 212 kts 224°
2026-05-05 10:51 46.41696 6.37311 4434 ft 202 kts 224°
2026-05-05 10:51 46.40722 6.35871 4220 ft 198 kts 224°
2026-05-05 10:52 46.39764 6.34446 3976 ft 194 kts 224°
2026-05-05 10:52 46.38859 6.33094 3965 ft 183 kts 224°
2026-05-05 10:52 46.37922 6.31696 3893 ft 205 kts 225°
2026-05-05 10:52 46.36884 6.30129 3424 ft 221 kts 225°
2026-05-05 10:53 46.35830 6.28574 3329 ft 213 kts 224°
2026-05-05 10:53 46.34803 6.27065 3176 ft 207 kts 225°
2026-05-05 10:53 46.33805 6.25602 3022 ft 200 kts 223°
2026-05-05 10:53 46.32816 6.24163 2849 ft 206 kts 224°
2026-05-05 10:54 46.31780 6.22636 2703 ft 216 kts 225°
2026-05-05 10:54 46.30727 6.21081 2546 ft 217 kts 225°
2026-05-05 10:54 46.29660 6.19509 2379 ft 219 kts 225°
2026-05-05 10:54 46.28598 6.17942 2215 ft 219 kts 225°
2026-05-05 10:55 46.27532 6.16372 2059 ft 217 kts 225°
2026-05-05 10:55 46.26486 6.14831 1839 ft 217 kts 225°
2026-05-05 10:55 46.25428 6.13274 1520 ft 214 kts 225°
2026-05-05 10:55 46.24403 6.11768 1371 ft 200 kts 222°
2026-05-05 10:56 46.23629 6.10633 1380 ft 115 kts 226°
2026-05-05 10:56 46.23282 6.10123 1399 ft 28 kts 225°
2026-05-05 10:56 46.23208 6.10012 1406 ft 13 kts 224°
2026-05-05 10:56 46.23131 6.09901 1411 ft 18 kts 226°
2026-05-05 10:57 46.23028 6.09760 1411 ft 23 kts 220°
2026-05-05 10:57 46.22951 6.09761 1410 ft 0 kts 97°
2026-05-05 10:57 46.22934 6.09847 1406 ft 19 kts 105°
2026-05-05 10:57 46.22937 6.09953 1403 ft 1 kts 43°
2026-05-05 10:58 46.22953 6.09974 1398 ft 5 kts 43°
2026-05-05 10:58 46.22987 6.10023 1394 ft 9 kts 46°
2026-05-05 10:58 46.23037 6.10097 1396 ft 12 kts 45°
2026-05-05 10:58 46.23028 6.10201 1397 ft 14 kts 135°
2026-05-05 10:59 46.22956 6.10307 1396 ft 14 kts 114°
2026-05-05 10:59 46.22991 6.10402 1395 ft 12 kts 45°
2026-05-05 10:59 46.23055 6.10497 1398 ft 15 kts 45°
2026-05-05 10:59 46.23134 6.10611 1399 ft 17 kts 45°
2026-05-05 11:00 46.23174 6.10670 1395 ft 1 kts 45°
2026-05-05 11:00 46.23188 6.10690 1401 ft 4 kts 50°
2026-05-05 11:00 46.23184 6.10702 1396 ft 0 kts 136°
2026-05-05 11:00 46.23174 6.10715 1396 ft 4 kts 136°
2026-05-05 11:01 46.23154 6.10743 1397 ft 0 kts 135°